Muncie, IN

1:14 AM EDT on August 23, 2017 (GMT -0400)
Delaware County-Johnson

Weather History for KMIE - July, 2013

Change the Weather History Date:

Monday, July 22, 2013

  Actual Average Record
Temperature  
Mean Temperature 74 °F 74 °F  
Max Temperature 81 °F 84 °F 97 °F (1983)
Min Temperature 67 °F 64 °F 48 °F (2007)
Degree Days  
Heating Degree Days 0 0  
Month to date heating degree days 0 0  
Since 1 June heating degree days 14 24  
Since 1 July heating degree days 0 0  
Cooling Degree Days 9 9  
Month to date cooling degree days 212 216  
Year to date cooling degree days 586 515  
Since 1 June cooling degree days 418 432  
Growing Degree Days 23 (Base 50)    
Moisture  
Dew Point 68 °F    
Average Humidity 80    
Maximum Humidity 93    
Minimum Humidity 67    
Precipitation  
Precipitation 0.11 in 0.14 in 1.09 in (1968)
Month to date precipitation 1.56 3.22  
Year to date precipitation 22.35 23.45  
Sea Level Pressure  
Sea Level Pressure 29.83 in    
Wind  
Wind Speed 4 mph (ENE)    
Max Wind Speed 13 mph    
Max Gust Speed 24 mph    
Visibility 9 miles    
Events Rain , Thunderstorm    
T = Trace of Precipitation, MM = Missing Value Source: NWS Daily Summary

Daily Weather History Graph

Daily Weather History Graph

Search for Another Location

Airport or City:

Trip Planner

Search our weather history database for the weather conditions in past years. The results will help you decide how hot, cold, wet, or windy it might be!

Date:

Astronomy

Jul. 22, 2013 Rise Set
Actual Time 6:30 AM EDT 9:05 PM EDT
Civil Twilight 5:59 AM EDT 9:36 PM EDT
Nautical Twilight 5:20 AM EDT 10:15 PM EDT
Astronomical Twilight 4:36 AM EDT 10:58 PM EDT
Moon 8:50 PM EDT (7/22) 6:26 AM EDT (7/22)
Length of Visible Light 15h 37m
Length of Day
14h 34m
Full, 100% of the Moon is Illuminated
Jul 22
Full
Jul 22
Full
Jul 29
Last Quarter
Aug 6
New
Aug 14
First Quarter

Hourly Weather History & Observations

Time (EDT) Temp. Heat Index Dew Point Humidity Pressure Visibility Wind Dir Wind Speed Gust Speed Precip Events Conditions
12:53 AM 73.9 °F - 68.0 °F 82% 29.88 in 10.0 mi SE 3.5 mph - N/A   Mostly Cloudy
1:53 AM 73.0 °F - 69.1 °F 87% 29.86 in 10.0 mi Calm Calm - 0.00 in   Overcast
2:53 AM 73.9 °F - 68.0 °F 82% 29.84 in 10.0 mi SE 3.5 mph - N/A   Partly Cloudy
3:20 AM 73.4 °F - 69.8 °F 88% 29.87 in 10.0 mi Calm Calm - N/A Thunderstorm Overcast
3:35 AM 73.4 °F - 69.8 °F 88% 29.87 in 10.0 mi East 3.5 mph - N/A   Mostly Cloudy
3:53 AM 73.0 °F - 69.1 °F 87% 29.84 in 9.0 mi East 4.6 mph - 0.00 in Rain , Thunderstorm Light Rain
4:03 AM 71.6 °F - 69.8 °F 94% 29.88 in 8.0 mi Calm Calm - 0.01 in Rain , Thunderstorm Light Rain
4:22 AM 73.4 °F - 68.0 °F 83% 29.87 in 8.0 mi Calm Calm - 0.02 in Rain Light Rain
4:53 AM 71.1 °F - 69.1 °F 93% 29.84 in 7.0 mi NE 6.9 mph - 0.02 in   Overcast
5:53 AM 70.0 °F - 66.9 °F 90% 29.84 in 3.0 mi East 5.8 mph - 0.05 in Rain Heavy Rain
6:45 AM 68.0 °F - 64.4 °F 88% 29.88 in 8.0 mi NE 6.9 mph - 0.00 in Rain Light Rain
6:53 AM 66.9 °F - 64.9 °F 93% 29.85 in 4.0 mi NNE 9.2 mph - 0.02 in Rain Rain
7:53 AM 68.0 °F - 64.9 °F 90% 29.86 in 7.0 mi East 3.5 mph - 0.02 in   Mostly Cloudy
8:53 AM 68.0 °F - 66.0 °F 93% 29.85 in 6.0 mi East 6.9 mph - N/A   Mostly Cloudy
9:53 AM 70.0 °F - 66.9 °F 90% 29.85 in 9.0 mi ESE 5.8 mph - 0.00 in   Mostly Cloudy
10:06 AM 71.6 °F - 66.2 °F 83% 29.87 in 8.0 mi East 8.1 mph - N/A   Mostly Cloudy
10:34 AM 71.6 °F - 66.2 °F 83% 29.88 in 10.0 mi East 5.8 mph - N/A   Mostly Cloudy
10:53 AM 72.0 °F - 66.9 °F 84% 29.85 in 10.0 mi ENE 8.1 mph - N/A   Overcast
11:53 AM 73.0 °F - 68.0 °F 84% 29.83 in 9.0 mi East 9.2 mph 19.6 mph N/A   Mostly Cloudy
12:00 PM 73.4 °F - 68.0 °F 83% 29.86 in 9.0 mi East 8.1 mph - N/A   Scattered Clouds
12:53 PM 75.0 °F - 68.0 °F 79% 29.83 in 9.0 mi SE 4.6 mph - N/A   Mostly Cloudy
1:53 PM 78.1 °F - 68.0 °F 71% 29.81 in 10.0 mi NE 5.8 mph - N/A   Overcast
2:43 PM 77.0 °F - 66.2 °F 69% 29.83 in 10.0 mi NE 3.5 mph - N/A   Overcast
2:53 PM 77.0 °F - 66.9 °F 71% 29.81 in 10.0 mi NE 3.5 mph - N/A   Overcast
3:19 PM 78.8 °F - 66.2 °F 65% 29.82 in 10.0 mi ENE 3.5 mph - N/A   Overcast
3:53 PM 79.0 °F - 66.9 °F 66% 29.79 in 10.0 mi East 3.5 mph - N/A   Mostly Cloudy
4:53 PM 79.0 °F - 69.1 °F 72% 29.79 in 10.0 mi East 4.6 mph - N/A   Overcast
5:53 PM 79.0 °F - 69.1 °F 72% 29.78 in 10.0 mi Calm Calm - N/A   Mostly Cloudy
6:53 PM 80.1 °F 82.7 °F 68.0 °F 67% 29.77 in 10.0 mi North 3.5 mph - N/A   Clear
7:53 PM 79.0 °F - 68.0 °F 69% 29.77 in 10.0 mi Calm Calm - N/A   Clear
8:53 PM 73.9 °F - 69.1 °F 85% 29.78 in 10.0 mi NW 3.5 mph - N/A   Clear
9:53 PM 71.1 °F - 68.0 °F 90% 29.79 in 10.0 mi Calm Calm - N/A   Clear
10:53 PM 70.0 °F - 66.9 °F 90% 29.81 in 9.0 mi Calm Calm - N/A   Clear
11:53 PM 69.1 °F - 66.9 °F 93% 29.81 in 8.0 mi Calm Calm - N/A   Clear